SCP
0 0 0 0 0 0 0 0 0 0 0 0 0 0 0 0 0 0 0 0 0 0 0 0 0 0 0 0 0 0 0 0 0 0 0 0 0 0
0 0 0 0 0 0 0 0 0 0 0 0 0 0 0 0 0 0 0 0 0 0 0 0 0 0 0 0 0 0 0 0 0 0 0 0 0 0
0 0 0 0 0 0 0 0 0 0 0 0 0 0 0 0 0 0 0 0 0 0 0 0 0 0 0 0 0 0 0 0 0 0 0 0 0 0
0 0 0 0 0 0 0 0 0 0 0 0 0 0 0 0 0 0 0 0 0 0 0 0 0 0 0 0 0 0 0 0 0 0 0 0 0 0
0 0 0 0 0 0 0 0 0 0 0 0 0 0 0 0 0 0 0 0 0 0 0 0 0 0 0 0 0 0 0 0 0 0 0 0 0 0
0 0 0 0 0 0 0 0 0 0 0 0 0 0 0 0 0 0 0 0 0 0 0 0 0 0 0 0 0 0 0 0 0 0 0 0 0 0
0 0 0 0 0 0 0 0 0 0 0 0 0 0 0 0 0 0 0 0 0 0 0 0 0 0 0 0 0 0 0 0 0 0 0 0 0 0
0 0 0 0 0 0 0 0 0 0 0 0 0 0 0 0 0 0 0 0 0 0 0 0 0 0 0 0 0 0 0 0 0 0 0 0 0 0
0 0 0 0 0 0 0 0 0 0 0 0 0 0 0 0 0 0 0 0 0 0 0 0 0 0 0 0 0 0 0 0 0 0 0 0 0 0
0 0 0 0 0 0 0 0 0 0 0 0 0 0 0 0 0 0 0 0 0 0 0 0 0 0 0 0 0 0 0 0 0 0 0 0 0 0
0 0 0 0 0 0 0 0 0 0 0 0 0 0 0 0 0 0 0 0 0 0 0 0 0 0 0 0 0 0 0 0 0 0 0 0 0 0
0 0 0 0 0 0 0 0 0 0 0 0 0 0 0 0 0 0 0 0 0 0 0 0 0 0 0 0 0 0 0 0 0 0 0 0 0 0
0 0 0 0 0 0 0 0 0 0 0 0 0 0 0 0 0 0 0 0 0 0 0 0 0 0 0 0 0 0 0 0 0 0 0 0 0 0
0 0 0 0 0 0 0 0 0 0 0 0 0 0 0 0 0 0 0 0 0 0 0 0 0 0 0 0 0 0 0 0 0 0 0 0 0 0
0 0 0 0 0 0 0 0 0 0 0 0 0 0 0 0 0 0 0 0 0 0 0 0 0 0 0 0 0 0 0 0 0 0 0 0 0 0
0 0 0 0 0 0 0 0 0 0 0 0 0 0 0 0 0 0 0 0 0 0 0 0 0 0 0 0 0 0 0 0 0 0 0 0 0 0
0 0 0 0 0 0 0 0 0 0 0 0 0 0 0 0 0 0 0 0 0 0 0 0 0 0 0 0 0 0 0 0 0 0 0 0 0 0
0 0 0 0 0 0 0 0 0 0 0 0 0 0 0 0 0 0 0 0 0 0 0 0 0 0 0 0 0 0 0 0 0 0 0 0 0 0
0 0 0 0 0 0 0 0 0 0 0 0 0 0 0 0 0 0 0 0 0 0 0 0 0 0 0 0 0 0 0 0 0 0 0 0 0 0
0 0 0 0 0 0 0 0 0 0 0 0 0 0 0 0 0 0 0 0 0 0 0 0 0 0 0 0 0 0 0 0 0 0 0 0 0 0
0 0 0 0 0 0 0 0 0 0 0 0 0 0 0 0 0 0 0 0 0 0 0 0 0 0 0 0 0 0 0 0 0 0 0 0 0 0
0 0 0 0 0 0 0 0 0 0 0 0 0 0 0 0 0 0 0 0 0 0 0 0 0 0 0 0 0 0 0 0 0 0 0 0 0 0
0 0 0 0 0 0 0 0 0 0 0 0 0 0 0 0 0 0 0 0 0 0 0 0 0 0 0 0 0 0 0 0 0 0 0 0 0 0
Wind_Speed
4 4 3 3 4 4 3 4 4 3 3 2 2 1 1 2 3 3 4 7 8 9 9 9 8 7 7 6 6 5 4 3 2 2 3 4 4 5
2 3 3 2 3 3 3 3 3 3 3 2 1 1 1 1 1 2 3 5 6 7 8 9 8 8 8 7 6 5 5 4 4 3 3 3 4 4
2 3 3 3 3 3 3 3 3 3 2 1 0 1 1 1 1 1 0 1 2 5 6 7 7 8 8 8 8 7 6 6 5 5 5 5 5 5
3 3 3 3 3 2 2 3 2 3 2 1 0 1 1 1 1 1 1 1 1 3 5 6 6 7 8 8 8 8 7 7 6 6 6 7 7 7
2 3 3 3 3 2 2 2 2 2 2 2 1 1 1 1 2 2 2 2 1 1 2 3 4 5 6 7 7 8 8 8 7 7 7 8 8 8
2 2 2 3 3 3 3 3 3 3 2 2 1 1 1 1 1 2 2 2 2 2 2 2 1 2 3 4 5 6 7 8 8 8 7 8 8 8
3 2 2 3 4 4 3 3 4 3 3 2 2 1 1 1 1 1 1 1 2 2 2 2 2 2 1 2 2 3 4 5 6 6 7 7 7 8
3 3 3 3 4 5 5 6 5 4 3 2 2 1 1 1 1 1 1 1 1 2 2 2 2 2 2 2 2 2 2 2 3 4 4 5 5 6
3 3 3 4 4 4 5 6 5 5 5 4 3 2 1 1 2 1 1 1 1 2 2 2 2 2 3 4 7 6 4 3 3 2 1 2 2 3
4 4 4 3 3 4 4 5 5 5 4 3 3 2 1 2 2 2 2 2 2 2 2 2 2 2 3 4 9 9 8 8 7 5 5 4 3 2
5 5 4 3 4 5 5 5 5 4 6 8 7 6 5 5 3 3 2 3 2 2 3 2 1 1 2 3 6 10 10 11 11 10 9 7 5 4
4 5 7 6 6 6 4 4 5 3 3 5 6 7 6 7 7 3 2 2 2 1 2 2 1 1 2 2 4 5 6 8 10 11 11 10 8 4
4 4 5 8 8 7 5 3 4 4 4 5 5 5 5 5 5 4 3 2 2 1 1 1 1 1 1 1 2 4 5 5 5 6 10 12 12 8
4 4 5 11 11 10 7 8 10 7 4 4 4 4 4 3 3 4 5 5 5 3 2 1 1 1 2 2 2 3 4 6 6 6 6 9 10 11
5 9 10 12 11 9 12 11 8 5 4 4 4 3 2 2 2 3 4 5 6 7 6 4 3 2 3 3 2 2 3 4 6 6 6 7 7 7
5 8 11 13 10 9 9 7 5 4 4 3 2 2 2 3 3 3 3 3 4 5 7 9 7 6 5 5 4 4 4 3 4 4 5 6 7 7
4 5 5 5 6 6 5 5 5 5 4 3 3 3 3 3 3 3 3 3 3 3 4 5 7 8 10 6 4 5 4 3 3 3 3 5 6 6
6 5 5 5 5 5 4 4 4 4 4 3 3 3 3 3 3 3 3 4 4 3 3 2 2 2 3 6 8 4 3 3 3 4 3 3 4 5
6 5 4 4 4 4 4 3 3 3 3 3 3 3 3 3 3 3 3 3 3 3 3 3 2 2 2 3 4 8 4 3 3 3 4 3 2 3
4 4 3 3 3 3 3 3 3 3 3 3 3 3 3 3 3 3 3 3 3 3 3 3 4 3 2 2 2 3 7 4 3 2 2 2 1 2
3 3 3 2 3 3 3 3 3 3 3 3 3 3 3 3 3 3 3 4 3 3 3 3 3 2 2 3 3 2 4 6 5 2 2 2 2 3
2 2 2 2 2 2 2 2 3 3 3 3 3 3 3 3 3 3 3 3 2 2 2 2 3 3 3 3 3 2 2 4 5 7 7 4 1 2
1 1 1 1 1 1 2 2 2 2 2 2 2 2 2 2 2 2 3 3 2 2 2 2 3 3 3 3 2 2 3 3 3 4 4 7 6 3
Wind_Direction
195 199 201 206 199 194 177 166 164 191 243 262 277 310 263 232 228 206 215 224 219 218 219 219 221 225 230 238 248 256 265 269 285 303 317 327 329 327
191 194 196 195 190 180 176 172 173 175 209 237 257 297 320 321 209 199 216 226 223 220 220 220 221 224 228 230 232 231 232 240 248 264 286 306 316 319
189 191 192 178 174 172 162 162 170 166 192 230 255 318 358 14 29 47 140 200 223 227 225 223 223 226 229 230 230 227 228 234 241 251 265 277 287 295
174 170 178 163 157 153 155 165 167 166 169 194 327 3 18 20 30 44 50 138 212 236 229 226 228 229 231 230 229 228 229 233 236 246 257 267 277 284
149 151 149 141 138 136 144 150 148 146 145 151 141 41 33 29 38 35 39 29 355 287 244 238 236 235 233 232 231 231 233 236 238 243 251 260 270 276
90 120 133 147 156 154 151 148 135 126 126 127 121 73 51 31 56 42 28 24 13 7 11 8 328 267 254 247 240 236 237 240 241 244 248 253 259 266
68 74 101 140 158 155 145 142 135 126 123 116 106 79 54 51 52 35 46 16 24 17 11 17 22 29 360 320 280 258 247 245 245 248 249 251 254 258
69 63 73 83 105 107 126 140 143 140 139 128 120 120 121 108 89 62 60 55 26 8 25 14 21 27 10 5 354 340 317 280 260 255 254 254 256 257
58 64 71 73 75 83 88 90 92 106 129 141 137 151 154 165 135 94 78 78 60 352 19 24 14 24 18 28 31 33 26 21 16 2 337 301 279 270
55 60 68 61 69 96 99 87 74 62 78 92 113 126 141 154 148 133 124 93 60 25 23 53 18 23 20 28 35 42 41 38 36 37 37 36 27 19
47 47 55 61 70 97 103 100 84 66 73 83 83 79 85 92 104 98 85 78 55 19 14 54 23 16 32 31 31 38 42 42 41 41 41 42 39 36
42 37 41 55 73 92 98 107 102 84 80 70 61 52 55 58 59 71 103 101 93 42 5 35 27 32 67 36 29 25 33 37 41 41 43 44 41 45
49 35 33 54 69 75 82 89 107 111 91 85 74 60 51 49 45 44 53 81 98 75 359 29 53 46 76 64 36 27 32 30 32 36 41 43 43 46
57 41 47 61 64 64 67 82 95 94 86 81 74 61 53 44 39 43 52 60 63 65 15 29 76 66 82 70 49 23 33 32 35 41 43 40 42 44
62 64 64 62 60 57 60 68 72 73 80 79 73 55 34 34 45 49 45 56 55 44 32 30 60 66 69 78 60 20 30 32 31 41 46 45 40 32
55 58 61 58 56 52 50 48 48 59 74 78 71 45 35 48 45 42 46 39 54 37 32 38 48 67 72 62 65 48 34 33 17 37 55 53 44 38
60 51 46 42 45 41 42 42 41 46 53 47 59 59 50 52 41 34 46 51 64 56 43 41 57 68 64 57 59 47 40 36 16 16 53 60 45 32
69 60 54 51 50 43 43 41 38 37 36 49 58 59 62 64 58 46 52 66 71 62 55 26 21 57 69 60 39 35 31 23 17 27 39 57 44 24
68 64 58 52 49 45 42 42 33 22 33 50 58 58 63 65 69 64 61 63 63 54 34 17 22 62 80 72 39 31 31 16 17 33 32 39 37 5
59 64 59 53 51 50 44 40 36 32 38 45 50 53 58 67 70 68 65 71 67 56 43 33 33 42 85 110 94 32 25 31 28 28 15 14 13 342
56 59 55 53 54 54 50 45 44 42 40 44 47 49 52 65 70 68 73 72 70 60 52 25 356 20 81 81 79 40 14 21 36 39 10 14 10 6
68 64 54 54 59 58 54 50 48 43 39 44 43 46 51 64 74 75 78 81 74 78 70 32 17 44 58 81 90 60 7 3 16 37 44 50 49 12
139 117 82 64 64 66 63 60 63 54 45 44 43 43 55 65 71 79 84 89 98 96 83 58 40 51 59 76 88 67 37 13 3 14 9 7 25 29